Location: Olsztyn
(53.7767°N, 20.4765°E)
Time: 08:22:24
(UTC+01:00)

Transit 4A - Pass Details

Date: 04 October 2022
Orbit: 871 x 972 km, 66.8° (Epoch: 06 December)

Event Time Altitude Azimuth Distance (km) Brightness Sun altitude
Exits shadow 00:41:20 26° 21° (NNE) 1,716 9.7 -40.4°
Drops below altitude 10° 00:44:03 10° 37° (NE) 2,570 10.7 -40.3°
Sets 00:46:40 0° 45° (NE) 3,500 11.5 -40.3°
